Regional Weather Roundup
Issued by NWS

Home | Current Version | Previous Version | Text Only | Print | Product List | Glossary Off
Versions: 1 2 3 4 5 6 7 8 9 10 11 12 13 14 15 16 17 18 19 20 21 22 23 24 25 26 27 28 29 30 31 32 33 34 35 36 37 38 39 40 41 42 43 44 45 46 47 48 49 50

000
ASUS43 KMPX 201401
RWRMN
WEATHER ROUNDUP FOR MINNESOTA
NATIONAL WEATHER SERVICE TWIN CITIES/CHANHASSEN MN
900 AM CDT SUN AUG 20 2017


NOTE: "FAIR" INDICATES FEW OR NO CLOUDS BELOW 12,000 FEET WITH NO
SIGNIFICANT WEATHER AND/OR OBSTRUCTIONS TO VISIBILITY. N/A MEANS
CURRENT SKY AND/OR WEATHER CONDITIONS ARE NOT AVAILABLE.

MNZ060>063-068>070-201500-
   Twin Cities Metro

CITY           SKY/WX    TMP DP  RH WIND       PRES   REMARKS
TWIN CITIES    PTSUNNY   71  63  75 SW3       29.90S
ST PAUL        CLOUDY    68  65  90 SE5       29.90S
CRYSTAL        SUNNY     71  62  73 SW8       29.88S
BLAINE         CLOUDY    72  66  83 SW6       29.89S
LAKEVILLE      CLOUDY    68  66  94 S3        29.91S
EDEN PRAIRIE   SUNNY     71  65  81 SW9       29.89S
SOUTH ST PAUL  CLOUDY    70  65  84 S5        29.90S
LAKE ELMO      FAIR      68  64  88 S5        29.91F
$$
MNZ001>005-007-008-013>017-022>024-027-028-201500-
   Northwest Minnesota

CITY           SKY/WX    TMP DP  RH WIND       PRES   REMARKS
BEMIDJI        CLOUDY    64  57  77 NW12      29.90R
HALLOCK        SUNNY     63  48  59 NW13      29.92R
ROSEAU         SUNNY     66  57  72 W9        29.88R
WARROAD        SUNNY     66  57  72 W7        29.87R
CROOKSTON      MOSUNNY   64  50  59 N14       29.94R
FOSSTON        CLOUDY    59  52  77 NW8       29.94R
DETROIT LAKES  CLOUDY    61  54  77 NW9       29.96R
MOORHEAD       CLOUDY    61  52  72 NW7       29.97R
PARK RAPIDS    PTSUNNY   67  60  78 NW13      29.91R
MAHNOMEN       FAIR      59  55  85 NW5       29.94R
$$
MNZ006-009>011-018-025>026-201500-
   North Central Minnesota

CITY           SKY/WX    TMP DP  RH WIND       PRES   REMARKS
BAUDETTE       SUNNY     67  55  65 NW16      29.85R
FLAG ISLAND    HAZE      66  54  63 NW12      29.83R VSB 1/4
INTL FALLS     CLOUDY    66  62  87 W9        29.81R
WASKISH        CLOUDY    66  57  72 NW13G21   29.86R
BIG FORK       CLOUDY    66  63  88 W5        29.85R
LONGVILLE      CLOUDY    66  63  88 NW6       29.88R
GRAND RAPIDS   CLOUDY    66  63  90 W10       29.88R
CRANE LAKE     CLOUDY    64  63  94 S3        29.82S
ORR            CLOUDY    64  61  88 W6        29.80S
COOK           CLOUDY    64  63  94 SW7       29.84R
WALKER         FAIR      65  59  81 NW9       29.89R
$$
MNZ012-019>021-037-201500-
   Northeast Minnesota

CITY           SKY/WX    TMP DP  RH WIND       PRES   REMARKS
DULUTH         MOSUNNY   66  64  93 SW12      29.86F
ELY            MOSUNNY   66  63  88 SW8G16    29.83R
HIBBING        CLOUDY    61  61 100 W3        29.85R FOG
EVELETH        CLOUDY    65  61  86 SW9       29.86R
DULUTH HARBOR  MOSUNNY   68  63  83 SW6       29.85F
TWO HARBORS    SUNNY     68  63  83 SW8       29.84S
SILVER BAY     SUNNY     66  63  88 SW3       29.84
GRAND MARAIS     N/A     65  63  93 CALM      29.84F
$$
MNZ029>031-032-039>041-046>048-054>057-064-201500-
   West Central Minnesota

CITY           SKY/WX    TMP DP  RH WIND       PRES   REMARKS
FERGUS FALLS   CLOUDY    63  55  77 N15       29.94R
WHEATON        PTSUNNY   64  54  68 NW15G22   29.96R
MORRIS         CLOUDY    66  59  77 N15G22    29.90S
ALEXANDRIA     CLOUDY    66  62  87 N14       29.92S
ELBOW LAKE     FAIR      62  57  84 NW14      29.94R
WADENA         CLOUDY    63  63 100 NW6       29.92R
GLENWOOD       PTSUNNY   66  64  94 NW12G18   29.90S
APPLETON       PTSUNNY   66  57  72 N5        29.92R
BENSON         CLOUDY    68  61  77 N6        29.93R
ORTONVILLE     PTSUNNY   66  55  68 MISG      29.93R
MADISON        MOSUNNY   68  63  83 NW8       29.93R
WILLMAR        FAIR      70  66  88 W5        29.93R
$$
MNZ033>034-036-042>043-049>051-058-059-201500-
   Central Minnesota

CITY           SKY/WX    TMP DP  RH WIND       PRES   REMARKS
ST CLOUD       SUNNY     68  66  93 S7        29.89R
SAUK CENTRE    PTSUNNY   67  64  91 NW10G20   29.90R
PAYNESVILLE    MOSUNNY   70  67  90 SW6       29.92R
AITKIN         CLOUDY    66  64  94 W8        29.86R
PINE RIVER     CLOUDY    64  61  88 NW7       29.93R
BRAINERD       CLOUDY    67  64  90 W6        29.88R
STAPLES        PTSUNNY   64  61  88 NW10      29.90S
LONG PRAIRIE   FAIR      66  63  88 W12G17    29.90R
LITTLE FALLS   MOSUNNY   66  63  88 W7        29.89R
LITCHFIELD     SUNNY     72  68  88 CALM      29.90F
BUFFALO        SUNNY     69  64  84 SW6       29.91F
MAPLE LAKE     SUNNY     70  67  92 SW3       29.90F
HUTCHINSON     SUNNY     70  67  91 S5        29.91F
$$
MNZ037-044-045-052-053-201500-
   East Central Minnesota

CITY           SKY/WX    TMP DP  RH WIND       PRES   REMARKS
PRINCETON      SUNNY     70  66  88 SW6       29.89S
MORA           MOSUNNY   64  63  94 SW7       29.90S
CAMBRIDGE      SUNNY     70  66  88 S8        29.90S
RUSH CITY      MOSUNNY   68  64  86 SW5       29.89F FOG
MOOSE LAKE     SUNNY     64  63  94 SW8       29.85S
HINCKLEY       FAIR      68  64  88 S8        29.88F
CLOQUET        SUNNY     66  63  88 S10       29.86F
MCGREGOR       PTSUNNY   68  64  88 SW5       29.87R
$$
MNZ071>073-080-081-089-090-097-098-201500-
   Southwest Minnesota

CITY           SKY/WX    TMP DP  RH WIND       PRES   REMARKS
MONTEVIDEO     MOSUNNY   70  68  94 N10       29.93R
GRANITE FALLS  MOSUNNY   70  67  88 W8        29.95R
CANBY          CLOUDY    68  59  73 NW9       29.95R
MARSHALL       MOSUNNY   70  65  84 NW8       29.94R
REDWOOD FALLS  SUNNY     70  65  84 SW8       29.91S
OLIVIA         SUNNY     70  64  83 SW7       29.91R
PIPESTONE      SUNNY     70  64  83 CALM      29.96R
WINDOM         MOSUNNY   72  64  78 SW7       29.95R
WORTHINGTON    SUNNY     72  63  73 SW10      29.96R
JACKSON        MOSUNNY   70  63  78 SW8       29.95S
TRACY          SUNNY     70  66  88 SW5       29.95R
SLAYTON        SUNNY     68  61  77 CALM      29.96R
$$
MNZ065>067-074>077-082>085-091>093-201500-
   South Central Minnesota

CITY           SKY/WX    TMP DP  RH WIND       PRES   REMARKS
MANKATO        CLOUDY    71  66  84 S8        29.93S
NEW ULM        SUNNY     72  64  78 SW6       29.92R
ST JAMES       SUNNY     70  64  83 S5        29.94S
FAIRMONT       CLOUDY    70  65  84 S6        29.95
GLENCOE        SUNNY     71  69  92 SW5       29.90F
FARIBAULT      CLOUDY    70  64  83 S5        29.94R
OWATONNA       CLOUDY    68  64  88 S9        29.95R
WASECA         MOSUNNY   66  63  88 S5        29.96R
ALBERT LEA     CLOUDY    72  66  83 CALM      29.97R
$$
MNZ078>079-086>088-094>096-201500-
   Southeast Minnesota

CITY           SKY/WX    TMP DP  RH WIND       PRES   REMARKS
ROCHESTER      CLOUDY    65  64  97 S9        29.97R
RED WING       CLOUDY    70  63  78 S3        29.92R
STANTON        CLOUDY    69  65  85 SW3       29.92R
DODGE CENTER   CLOUDY    66  63  88 S8        29.96R
WINONA         CLOUDY    70  64  83 E5        29.96R
AUSTIN         CLOUDY    66  63  88 S6        29.97R
PRESTON        CLOUDY    65  62  89 S7        29.98S
$$
ABBREVIATIONS USED IN REMARKS
   TC - TEMPERATURES IN CELSIUS
  WCI - WIND CHILL INDEX
   HX - HEAT INDEX
  VSB - VISIBILITY
$$



USA.gov is the U.S. government's official web portal to all federal, state and local government web resources and services.